• In Hungary
  • List of Countries
  • For 7 days
  • Water Temperature
  • Satellite Maps
  • Weather Map
  • News
  • Weather Widgets
  • user-avatar
    Login

    Hourly Weather Semenovka

    Today, 22 May, Tuesday

    Time Temperature Precipitation Wind Pressure Humidity
    00:00 +8°C° 0 mm 4 mps 749 mmHg 79%
    01:00 +7°C° 0 mm 4 mps 749 mmHg 81%
    02:00 +6°C° 0 mm 4 mps 750 mmHg 82%
    03:00 +7°C° 0 mm 3 mps 750 mmHg 82%
    04:00 +5°C° 0 mm 3 mps 750 mmHg 86%
    05:00 +8°C° 0 mm 3 mps 750 mmHg 79%
    06:00 +8°C° 0 mm 4 mps 751 mmHg 72%
    07:00 +11°C° 0 mm 4 mps 751 mmHg 65%
    08:00 +12°C° 0 mm 4 mps 751 mmHg 59%
    09:00 +14°C° 0 mm 5 mps 751 mmHg 54%
    10:00 +16°C° 0 mm 5 mps 751 mmHg 48%
    11:00 +17°C° 0 mm 5 mps 751 mmHg 47%
    12:00 +19°C° 0 mm 5 mps 751 mmHg 46%
    13:00 +20°C° 0 mm 5 mps 751 mmHg 45%
    14:00 +20°C° 0 mm 5 mps 751 mmHg 46%
    15:00 +20°C° 0 mm 5 mps 751 mmHg 46%
    16:00 +22°C° 0 mm 5 mps 750 mmHg 50%
    17:00 +21°C° 0 mm 4 mps 750 mmHg 55%
    18:00 +21°C° 0 mm 4 mps 750 mmHg 60%
    19:00 +20°C° 0 mm 4 mps 750 mmHg 65%
    20:00 +18°C° 0 mm 3 mps 750 mmHg 70%
    21:00 +17°C° 0 mm 3 mps 750 mmHg 74%
    22:00 +14°C° 0 mm 3 mps 751 mmHg 79%
    23:00 +15°C° 0 mm 2 mps 751 mmHg 81%

    Tomorrow, 23 May, Wednesday

    Time Temperature Precipitation Wind Pressure Humidity
    00:00 +14°C° 0 mm 2 mps 751 mmHg 83%
    01:00 +13°C° 0 mm 2 mps 751 mmHg 85%
    02:00 +13°C° 0 mm 2 mps 751 mmHg 86%
    03:00 +13°C° 0 mm 1 mps 751 mmHg 87%
    04:00 +12°C° 0 mm 1 mps 751 mmHg 88%
    05:00 +14°C° 0 mm 1 mps 751 mmHg 83%
    06:00 +15°C° 0 mm 1 mps 752 mmHg 78%
    07:00 +18°C° 0 mm 1 mps 752 mmHg 73%
    08:00 +20°C° 0 mm 1 mps 752 mmHg 67%
    09:00 +22°C° 0 mm 1 mps 752 mmHg 60%
    10:00 +24°C° 0 mm 1 mps 752 mmHg 53%
    11:00 +25°C° 0 mm 1 mps 752 mmHg 49%
    12:00 +26°C° 0 mm 1 mps 752 mmHg 45%
    13:00 +27°C° 0 mm 1 mps 752 mmHg 41%
    14:00 +27°C° 0 mm 2 mps 751 mmHg 41%
    15:00 +28°C° 0 mm 2 mps 751 mmHg 42%
    16:00 +28°C° 0 mm 3 mps 751 mmHg 42%
    17:00 +27°C° 0 mm 3 mps 750 mmHg 48%
    18:00 +26°C° 0 mm 2 mps 750 mmHg 54%
    19:00 +24°C° 0 mm 2 mps 750 mmHg 60%
    20:00 +23°C° 0 mm 2 mps 750 mmHg 63%
    21:00 +20°C° 0 mm 2 mps 750 mmHg 66%
    22:00 +19°C° 0 mm 2 mps 749 mmHg 69%
    23:00 +18°C° 0 mm 2 mps 749 mmHg 70%

    Day after tomorrow, 24 May, Thursday

    Time Temperature Precipitation Wind Pressure Humidity
    00:00 +18°C° 0 mm 2 mps 749 mmHg 72%
    01:00 +17°C° 0 mm 2 mps 749 mmHg 74%
    02:00 +17°C° 0 mm 2 mps 749 mmHg 74%
    03:00 +17°C° 0 mm 2 mps 748 mmHg 73%
    04:00 +17°C° 0 mm 2 mps 748 mmHg 73%
    05:00 +18°C° 0 mm 2 mps 748 mmHg 71%
    06:00 +19°C° 0 mm 3 mps 748 mmHg 69%
    07:00 +20°C° 0 mm 3 mps 748 mmHg 67%
    08:00 +21°C° 0 mm 3 mps 747 mmHg 66%
    09:00 +22°C° 0 mm 3 mps 747 mmHg 64%
    10:00 +22°C° 0 mm 3 mps 747 mmHg 63%
    11:00 +24°C° 0 mm 3 mps 747 mmHg 59%
    12:00 +25°C° 0 mm 3 mps 746 mmHg 56%
    13:00 +26°C° 0 mm 3 mps 746 mmHg 52%
    14:00 +26°C° 0 mm 3 mps 746 mmHg 52%
    15:00 +26°C° 0 mm 3 mps 745 mmHg 51%
    16:00 +26°C° 0 mm 3 mps 745 mmHg 50%
    17:00 +25°C° 0 mm 3 mps 744 mmHg 57%
    18:00 +22°C° 0 mm 3 mps 744 mmHg 63%
    19:00 +21°C° 0 mm 3 mps 744 mmHg 70%
    20:00 +20°C° 0.1 mm 2 mps 743 mmHg 73%
    21:00 +19°C° 0.1 mm 2 mps 743 mmHg 76%
    22:00 +17°C° 0.1 mm 2 mps 743 mmHg 80%
    23:00 +18°C° 0.4 mm 1 mps 742 mmHg 83%

    25 May, Friday

    Time Temperature Precipitation Wind Pressure Humidity
    00:00 +16°C° 0.4 mm 1 mps 742 mmHg 86%
    01:00 +16°C° 0.4 mm 1 mps 742 mmHg 90%
    02:00 +16°C° 0.4 mm 1 mps 741 mmHg 91%
    03:00 +16°C° 0.4 mm 1 mps 741 mmHg 92%
    04:00 +16°C° 0.4 mm 1 mps 741 mmHg 93%
    05:00 +16°C° 0.3 mm 1 mps 740 mmHg 92%
    06:00 +16°C° 0.3 mm 1 mps 740 mmHg 90%
    07:00 +18°C° 0.3 mm 1 mps 740 mmHg 89%
    08:00 +18°C° 1.4 mm 1 mps 740 mmHg 90%
    09:00 +17°C° 1.4 mm 2 mps 740 mmHg 90%
    10:00 +17°C° 1.4 mm 2 mps 740 mmHg 91%
    11:00 +17°C° 1.4 mm 2 mps 739 mmHg 90%
    12:00 +16°C° 1.4 mm 2 mps 739 mmHg 89%
    13:00 +16°C° 1.4 mm 3 mps 739 mmHg 87%
    14:00 +16°C° 1 mm 3 mps 739 mmHg 88%
    15:00 +14°C° 1 mm 3 mps 739 mmHg 88%
    16:00 +13°C° 1 mm 4 mps 739 mmHg 88%
    17:00 +13°C° 1.2 mm 4 mps 739 mmHg 87%
    18:00 +12°C° 1.2 mm 4 mps 739 mmHg 86%
    19:00 +11°C° 1.2 mm 4 mps 739 mmHg 84%
    20:00 +10°C° 0.3 mm 5 mps 739 mmHg 81%
    21:00 +9°C° 0.3 mm 6 mps 739 mmHg 77%
    22:00 +8°C° 0.3 mm 7 mps 739 mmHg 73%
    23:00 +6°C° 0 mm 7 mps 739 mmHg 71%

    26 May, Saturday

    Time Temperature Precipitation Wind Pressure Humidity
    00:00 +6°C° 0 mm 7 mps 740 mmHg 69%
    01:00 +5°C° 0 mm 6 mps 740 mmHg 68%
    02:00 +4°C° 0 mm 7 mps 740 mmHg 68%
    03:00 +4°C° 0 mm 7 mps 740 mmHg 68%
    04:00 +3°C° 0 mm 7 mps 740 mmHg 68%
    05:00 +4°C° 0 mm 8 mps 741 mmHg 68%
    06:00 +4°C° 0 mm 8 mps 741 mmHg 67%
    07:00 +5°C° 0 mm 9 mps 741 mmHg 67%
    08:00 +5°C° 0 mm 9 mps 742 mmHg 66%
    09:00 +6°C° 0 mm 9 mps 742 mmHg 65%
    10:00 +7°C° 0 mm 9 mps 742 mmHg 63%
    11:00 +8°C° 0.1 mm 9 mps 743 mmHg 60%
    12:00 +10°C° 0.1 mm 9 mps 743 mmHg 58%
    13:00 +10°C° 0.1 mm 9 mps 743 mmHg 55%
    14:00 +10°C° 0 mm 9 mps 744 mmHg 53%
    15:00 +10°C° 0 mm 9 mps 744 mmHg 52%
    16:00 +10°C° 0 mm 9 mps 744 mmHg 50%
    17:00 +10°C° 0 mm 8 mps 745 mmHg 52%
    18:00 +9°C° 0 mm 7 mps 745 mmHg 54%
    19:00 +8°C° 0 mm 6 mps 746 mmHg 57%
    20:00 +7°C° 0 mm 5 mps 746 mmHg 58%
    21:00 +6°C° 0 mm 5 mps 747 mmHg 59%
    22:00 +4°C° 0 mm 4 mps 747 mmHg 61%
    23:00 +4°C° 0 mm 4 mps 747 mmHg 63%

    27 May, Sunday

    Time Temperature Precipitation Wind Pressure Humidity
    00:00 +3°C° 0 mm 3 mps 747 mmHg 66%
    01:00 +3°C° 0 mm 3 mps 748 mmHg 68%
    02:00 +2°C° 0 mm 3 mps 748 mmHg 70%
    03:00 +3°C° 0 mm 2 mps 748 mmHg 72%
    04:00 +3°C° 0 mm 2 mps 748 mmHg 74%
    05:00 +4°C° 0 mm 2 mps 748 mmHg 71%
    06:00 +6°C° 0 mm 2 mps 748 mmHg 68%
    07:00 +8°C° 0 mm 3 mps 748 mmHg 65%
    08:00 +10°C° 0 mm 3 mps 747 mmHg 60%
    09:00 +11°C° 0 mm 4 mps 747 mmHg 56%
    10:00 +13°C° 0 mm 4 mps 747 mmHg 52%
    11:00 +14°C° 0 mm 4 mps 746 mmHg 51%
    12:00 +15°C° 0 mm 5 mps 745 mmHg 51%
    13:00 +16°C° 0 mm 5 mps 744 mmHg 50%
    14:00 +17°C° 0 mm 5 mps 744 mmHg 52%
    15:00 +17°C° 0 mm 6 mps 743 mmHg 55%
    16:00 +19°C° 0 mm 6 mps 742 mmHg 57%
    17:00 +17°C° 0.9 mm 6 mps 741 mmHg 66%
    18:00 +16°C° 0.9 mm 6 mps 741 mmHg 74%
    19:00 +15°C° 0.9 mm 5 mps 740 mmHg 83%
    20:00 +14°C° 0.9 mm 5 mps 739 mmHg 84%
    21:00 +14°C° 0.9 mm 5 mps 739 mmHg 86%
    22:00 +13°C° 0.9 mm 5 mps 738 mmHg 87%
    23:00 +13°C° 0.7 mm 5 mps 737 mmHg 89%
    Show more